LOT397 EPWA-EDDH

Flight info

Callsign LOT397
Flight time 1h 8m
Altitude 38000
Route LOLSI T174 INDIG DCT ALUKA DCT VIBIS L619 BUMIL M748 RARUP RARUP6A
Aircraft B38M/M-SDE1FGHILORVWXY/HB1

Departure

Time 2026-04-21 18:11
Airport Warsaw Chopin Airport (EPWA)

Arrival

Time 2026-04-21 19:20
Airport Hamburg Helmut Schmidt Airport (EDDH)
Time Latitude Longitude Altitude Speed Heading
2026-04-21 17:52 52.17378 20.97049 337 ft 0 kts 242°
2026-04-21 17:56 52.17378 20.97051 341 ft 1 kts 242°
2026-04-21 17:57 52.17386 20.97075 336 ft 3 kts 242°
2026-04-21 17:57 52.17396 20.97104 338 ft 3 kts 243°
2026-04-21 17:57 52.17402 20.97131 337 ft 3 kts 276°
2026-04-21 17:57 52.17399 20.97142 338 ft 1 kts 332°
2026-04-21 17:58 52.17387 20.97152 338 ft 3 kts 332°
2026-04-21 17:58 52.17377 20.97162 339 ft 0 kts 332°
2026-04-21 18:01 52.17380 20.97159 337 ft 3 kts 332°
2026-04-21 18:01 52.17427 20.97118 338 ft 11 kts 332°
2026-04-21 18:01 52.17503 20.97052 340 ft 13 kts 332°
2026-04-21 18:01 52.17534 20.97025 340 ft 0 kts 331°
2026-04-21 18:05 52.17558 20.97004 341 ft 12 kts 331°
2026-04-21 18:05 52.17622 20.96890 340 ft 11 kts 257°
2026-04-21 18:06 52.17565 20.96727 338 ft 24 kts 239°
2026-04-21 18:06 52.17470 20.96510 341 ft 16 kts 235°
2026-04-21 18:06 52.17403 20.96391 341 ft 9 kts 180°
2026-04-21 18:06 52.17321 20.96458 337 ft 19 kts 152°
2026-04-21 18:07 52.17162 20.96596 340 ft 31 kts 152°
2026-04-21 18:07 52.16982 20.96754 340 ft 29 kts 151°
2026-04-21 18:07 52.16802 20.96910 336 ft 30 kts 152°
2026-04-21 18:07 52.16682 20.97016 339 ft 10 kts 145°
2026-04-21 18:08 52.16640 20.97135 340 ft 18 kts 114°
2026-04-21 18:08 52.16629 20.97177 341 ft 0 kts 114°
2026-04-21 18:08 52.16628 20.97178 341 ft 1 kts 114°
2026-04-21 18:09 52.16603 20.97269 337 ft 19 kts 114°
2026-04-21 18:09 52.16524 20.97550 339 ft 32 kts 114°
2026-04-21 18:09 52.16451 20.97791 339 ft 9 kts 130°
2026-04-21 18:09 52.16440 20.97804 340 ft 5 kts 155°
2026-04-21 18:10 52.16387 20.97783 346 ft 14 kts 207°
2026-04-21 18:10 52.16302 20.97712 338 ft 7 kts 225°
2026-04-21 18:10 52.16298 20.97688 338 ft 0 kts 291°
2026-04-21 18:10 52.16318 20.97625 340 ft 24 kts 296°
2026-04-21 18:11 52.16512 20.96941 338 ft 108 kts 295°
2026-04-21 18:11 52.16916 20.95478 406 ft 166 kts 295°
2026-04-21 18:11 52.17393 20.93675 1165 ft 175 kts 296°
2026-04-21 18:11 52.17883 20.91831 2083 ft 186 kts 298°
2026-04-21 18:12 52.18364 20.89701 2439 ft 219 kts 288°
2026-04-21 18:12 52.18412 20.87033 2860 ft 251 kts 261°
2026-04-21 18:12 52.18076 20.84284 3892 ft 252 kts 271°
2026-04-21 18:12 52.18316 20.81401 4574 ft 264 kts 284°
2026-04-21 18:13 52.18319 20.78432 5566 ft 269 kts 263°
2026-04-21 18:13 52.18064 20.75385 6528 ft 274 kts 265°
2026-04-21 18:13 52.17858 20.72292 7458 ft 277 kts 266°
2026-04-21 18:13 52.17661 20.69122 8286 ft 284 kts 267°
2026-04-21 18:14 52.17282 20.62646 9821 ft 296 kts 268°
2026-04-21 18:14 52.17090 20.59277 10574 ft 304 kts 267°
2026-04-21 18:14 52.16891 20.55744 10978 ft 323 kts 267°
2026-04-21 18:15 52.16679 20.51983 11375 ft 341 kts 267°
2026-04-21 18:15 52.16457 20.48068 11909 ft 352 kts 267°
2026-04-21 18:15 52.16230 20.44088 12709 ft 355 kts 267°
2026-04-21 18:15 52.15999 20.40057 13432 ft 360 kts 267°
2026-04-21 18:16 52.15763 20.35978 14133 ft 364 kts 267°
2026-04-21 18:16 52.15523 20.31857 14785 ft 367 kts 267°
2026-04-21 18:16 52.15280 20.27692 15409 ft 371 kts 267°
2026-04-21 18:16 52.15032 20.23486 16036 ft 374 kts 267°
2026-04-21 18:17 52.14781 20.19246 16652 ft 378 kts 267°
2026-04-21 18:17 52.14526 20.14975 17255 ft 381 kts 267°
2026-04-21 18:17 52.14267 20.10662 17839 ft 385 kts 267°
2026-04-21 18:17 52.14005 20.06311 18410 ft 388 kts 267°
2026-04-21 18:18 52.13737 20.01916 18876 ft 392 kts 267°
2026-04-21 18:18 52.13466 19.97478 19349 ft 395 kts 267°
2026-04-21 18:18 52.13192 19.93021 19842 ft 398 kts 267°
2026-04-21 18:18 52.12914 19.88527 20313 ft 400 kts 267°
2026-04-21 18:19 52.12636 19.84059 20775 ft 403 kts 267°
2026-04-21 18:19 52.12350 19.79506 21232 ft 406 kts 267°
2026-04-21 18:19 52.12061 19.74925 21702 ft 409 kts 267°
2026-04-21 18:19 52.11768 19.70306 22169 ft 412 kts 267°
2026-04-21 18:20 52.11467 19.65592 22637 ft 414 kts 267°
2026-04-21 18:20 52.11170 19.60975 23097 ft 417 kts 267°
2026-04-21 18:20 52.10862 19.56205 23577 ft 420 kts 267°
2026-04-21 18:20 52.10552 19.51462 23999 ft 423 kts 266°
2026-04-21 18:21 52.10245 19.46760 24412 ft 425 kts 266°
2026-04-21 18:21 52.09925 19.41903 24833 ft 427 kts 266°
2026-04-21 18:21 52.09610 19.37151 25247 ft 430 kts 266°
2026-04-21 18:21 52.09287 19.32310 25681 ft 432 kts 266°
2026-04-21 18:22 52.08960 19.27445 26097 ft 434 kts 266°
2026-04-21 18:22 52.08629 19.22551 26509 ft 437 kts 266°
2026-04-21 18:22 52.08294 19.17624 26919 ft 439 kts 266°
2026-04-21 18:22 52.07956 19.12679 27313 ft 442 kts 266°
2026-04-21 18:23 52.07613 19.07702 27703 ft 444 kts 266°
2026-04-21 18:23 52.07267 19.02708 28082 ft 446 kts 266°
2026-04-21 18:23 52.06916 18.97683 28466 ft 449 kts 266°
2026-04-21 18:23 52.06562 18.92635 28785 ft 452 kts 266°
2026-04-21 18:24 52.06202 18.87540 29114 ft 455 kts 266°
2026-04-21 18:24 52.05839 18.82425 29491 ft 457 kts 266°
2026-04-21 18:24 52.05471 18.77279 29833 ft 459 kts 266°
2026-04-21 18:24 52.05099 18.72105 30176 ft 462 kts 266°
2026-04-21 18:25 52.04723 18.66921 30472 ft 464 kts 266°
2026-04-21 18:25 52.04343 18.61704 30764 ft 465 kts 266°
2026-04-21 18:25 52.03959 18.56473 31055 ft 467 kts 266°
2026-04-21 18:25 52.03572 18.51227 31336 ft 469 kts 266°
2026-04-21 18:26 52.03181 18.45960 31618 ft 471 kts 266°
2026-04-21 18:26 52.02786 18.40669 31866 ft 473 kts 265°
2026-04-21 18:26 52.02387 18.35355 32071 ft 476 kts 265°
2026-04-21 18:26 52.01982 18.30002 32344 ft 478 kts 265°
2026-04-21 18:27 52.01574 18.24644 32691 ft 478 kts 265°
2026-04-21 18:27 52.01165 18.19304 33074 ft 476 kts 265°
2026-04-21 18:27 52.00755 18.13975 33471 ft 475 kts 265°
2026-04-21 18:27 52.00343 18.08660 33851 ft 474 kts 265°
2026-04-21 18:28 52.00033 18.03355 34212 ft 470 kts 274°
2026-04-21 18:28 52.00447 17.98159 34533 ft 462 kts 288°
2026-04-21 18:28 52.01529 17.93288 34772 ft 459 kts 295°
2026-04-21 18:28 52.02745 17.88487 34963 ft 460 kts 296°
2026-04-21 18:29 52.03982 17.83688 35174 ft 461 kts 296°
2026-04-21 18:29 52.05214 17.78962 35423 ft 461 kts 296°
2026-04-21 18:29 52.06469 17.74169 35676 ft 461 kts 296°
2026-04-21 18:29 52.07725 17.69376 35929 ft 461 kts 296°
2026-04-21 18:30 52.08978 17.64582 36155 ft 461 kts 296°
2026-04-21 18:30 52.11486 17.54958 36215 ft 461 kts 296°
2026-04-21 18:31 52.13974 17.45372 36204 ft 460 kts 296°
2026-04-21 18:31 52.16461 17.35749 36222 ft 462 kts 296°
2026-04-21 18:32 52.18943 17.26103 36225 ft 461 kts 296°
2026-04-21 18:32 52.21417 17.16446 36225 ft 461 kts 295°
2026-04-21 18:33 52.23881 17.06785 36229 ft 462 kts 295°
2026-04-21 18:33 52.26342 16.97099 36218 ft 462 kts 295°
2026-04-21 18:34 52.28797 16.87390 36214 ft 463 kts 295°
2026-04-21 18:34 52.31245 16.77667 36213 ft 463 kts 295°
2026-04-21 18:35 52.33274 16.69577 36218 ft 463 kts 295°
2026-04-21 18:35 52.36118 16.58186 36217 ft 463 kts 295°
2026-04-21 18:36 52.38546 16.48414 36288 ft 465 kts 295°
2026-04-21 18:36 52.39760 16.43518 36552 ft 464 kts 295°
2026-04-21 18:36 52.40973 16.38611 36783 ft 465 kts 295°
2026-04-21 18:36 52.42182 16.33708 37022 ft 465 kts 295°
2026-04-21 18:37 52.43389 16.28802 37261 ft 464 kts 295°
2026-04-21 18:37 52.44594 16.23891 37503 ft 464 kts 294°
2026-04-21 18:37 52.45798 16.18979 37713 ft 464 kts 294°
2026-04-21 18:37 52.46998 16.14065 37926 ft 464 kts 294°
2026-04-21 18:38 52.47792 16.10809 38049 ft 464 kts 294°
2026-04-21 18:38 52.48989 16.05894 38217 ft 464 kts 294°
2026-04-21 18:38 52.50187 16.00961 38260 ft 465 kts 294°
2026-04-21 18:39 52.52959 15.89511 38246 ft 463 kts 294°
2026-04-21 18:39 52.54947 15.81257 38243 ft 464 kts 294°
2026-04-21 18:40 52.57314 15.71391 38246 ft 464 kts 294°
2026-04-21 18:40 52.59653 15.61596 38245 ft 464 kts 294°
2026-04-21 18:41 52.62007 15.51694 38246 ft 464 kts 294°
2026-04-21 18:41 52.64352 15.41786 38250 ft 464 kts 294°
2026-04-21 18:42 52.66689 15.31868 38258 ft 464 kts 294°
2026-04-21 18:42 52.69017 15.21937 38259 ft 464 kts 294°
2026-04-21 18:43 52.71337 15.11999 38260 ft 465 kts 293°
2026-04-21 18:43 52.73649 15.02045 38263 ft 465 kts 293°
2026-04-21 18:44 52.75954 14.92076 38262 ft 465 kts 293°
2026-04-21 18:44 52.78250 14.82099 38268 ft 465 kts 293°
2026-04-21 18:45 52.80536 14.72121 38269 ft 465 kts 293°
2026-04-21 18:45 52.82817 14.62126 38274 ft 465 kts 293°
2026-04-21 18:46 52.85091 14.52122 38272 ft 465 kts 293°
2026-04-21 18:46 52.87177 14.42004 38265 ft 467 kts 282°
2026-04-21 18:47 52.87701 14.31259 38264 ft 469 kts 277°
2026-04-21 18:47 52.89103 14.20923 38289 ft 460 kts 298°
2026-04-21 18:48 52.91584 14.11085 38343 ft 464 kts 294°
2026-04-21 18:48 52.93890 14.01057 38280 ft 465 kts 293°
2026-04-21 18:49 52.96178 13.91020 38301 ft 466 kts 293°
2026-04-21 18:49 52.98089 13.82598 38302 ft 465 kts 293°
2026-04-21 18:50 53.00731 13.70901 38317 ft 466 kts 293°
2026-04-21 18:50 53.02998 13.60811 38304 ft 466 kts 293°
2026-04-21 18:51 53.05252 13.50732 38210 ft 460 kts 293°
2026-04-21 18:51 53.06365 13.45740 37441 ft 462 kts 293°
2026-04-21 18:51 53.07478 13.40733 36715 ft 463 kts 293°
2026-04-21 18:51 53.08591 13.35709 36001 ft 464 kts 294°
2026-04-21 18:52 53.09707 13.30662 35275 ft 465 kts 294°
2026-04-21 18:52 53.10824 13.25598 34589 ft 467 kts 294°
2026-04-21 18:52 53.11941 13.20517 33796 ft 468 kts 294°
2026-04-21 18:52 53.13061 13.15409 32931 ft 471 kts 294°
2026-04-21 18:53 53.14187 13.10266 32044 ft 475 kts 294°
2026-04-21 18:53 53.15319 13.05083 31154 ft 479 kts 294°
2026-04-21 18:53 53.16459 12.99845 30239 ft 483 kts 294°
2026-04-21 18:53 53.17605 12.94567 29376 ft 483 kts 294°
2026-04-21 18:54 53.18743 12.89317 28531 ft 482 kts 294°
2026-04-21 18:54 53.19883 12.84042 27578 ft 484 kts 294°
2026-04-21 18:54 53.21023 12.78751 26648 ft 486 kts 294°
2026-04-21 18:54 53.22169 12.73424 25737 ft 488 kts 293°
2026-04-21 18:55 53.22926 12.69895 25155 ft 489 kts 293°
2026-04-21 18:55 53.24443 12.62810 24520 ft 480 kts 293°
2026-04-21 18:55 53.25569 12.57538 24353 ft 482 kts 293°
2026-04-21 18:55 53.26693 12.52260 24307 ft 482 kts 293°
2026-04-21 18:56 53.27814 12.46983 24331 ft 482 kts 293°
2026-04-21 18:56 53.28934 12.41696 24326 ft 482 kts 293°
2026-04-21 18:56 53.30052 12.36405 24318 ft 483 kts 293°
2026-04-21 18:56 53.31168 12.31110 24337 ft 484 kts 293°
2026-04-21 18:57 53.32284 12.25798 24335 ft 484 kts 292°
2026-04-21 18:57 53.33397 12.20487 24338 ft 484 kts 292°
2026-04-21 18:57 53.34508 12.15175 24340 ft 484 kts 292°
2026-04-21 18:57 53.35619 12.09849 24341 ft 484 kts 292°
2026-04-21 18:58 53.36725 12.04528 24341 ft 484 kts 292°
2026-04-21 18:58 53.37829 11.99206 24341 ft 484 kts 292°
2026-04-21 18:58 53.38933 11.93872 24341 ft 484 kts 292°
2026-04-21 18:58 53.40034 11.88534 24337 ft 484 kts 292°
2026-04-21 18:59 53.41133 11.83196 24319 ft 485 kts 292°
2026-04-21 18:59 53.42216 11.77915 24336 ft 486 kts 292°
2026-04-21 18:59 53.43309 11.72573 24085 ft 480 kts 292°
2026-04-21 18:59 53.44376 11.67343 23058 ft 469 kts 292°
2026-04-21 19:00 53.45418 11.62226 22075 ft 459 kts 292°
2026-04-21 19:00 53.46436 11.57215 21144 ft 449 kts 292°
2026-04-21 19:00 53.47432 11.52299 20260 ft 440 kts 292°
2026-04-21 19:00 53.48405 11.47484 19420 ft 431 kts 291°
2026-04-21 19:01 53.49357 11.42761 18605 ft 423 kts 291°
2026-04-21 19:01 53.50289 11.38128 17862 ft 412 kts 291°
2026-04-21 19:01 53.51186 11.33657 17403 ft 396 kts 291°
2026-04-21 19:01 53.52047 11.29359 16988 ft 382 kts 291°
2026-04-21 19:02 53.52891 11.25131 16336 ft 381 kts 291°
2026-04-21 19:02 53.53733 11.20908 15862 ft 380 kts 291°
2026-04-21 19:02 53.54557 11.16765 15464 ft 367 kts 291°
2026-04-21 19:02 53.55350 11.12771 15071 ft 354 kts 291°
2026-04-21 19:03 53.56114 11.08914 14701 ft 342 kts 291°
2026-04-21 19:03 53.56863 11.05124 14341 ft 331 kts 291°
2026-04-21 19:03 53.57569 11.01543 13982 ft 324 kts 291°
2026-04-21 19:03 53.58285 10.97909 13608 ft 331 kts 291°
2026-04-21 19:04 53.59014 10.94199 13249 ft 336 kts 291°
2026-04-21 19:04 53.59748 10.90455 12896 ft 336 kts 291°
2026-04-21 19:04 53.60479 10.86722 12533 ft 334 kts 291°
2026-04-21 19:04 53.61202 10.83021 12179 ft 332 kts 291°
2026-04-21 19:05 53.61920 10.79337 11825 ft 329 kts 291°
2026-04-21 19:05 53.62631 10.75686 11478 ft 327 kts 291°
2026-04-21 19:05 53.63336 10.72055 11131 ft 325 kts 291°
2026-04-21 19:05 53.63841 10.68363 10850 ft 323 kts 273°
2026-04-21 19:06 53.63516 10.64641 10715 ft 320 kts 253°
2026-04-21 19:06 53.62884 10.61121 10651 ft 309 kts 253°
2026-04-21 19:06 53.62194 10.57758 10544 ft 299 kts 245°
2026-04-21 19:06 53.61335 10.54602 10413 ft 296 kts 252°
2026-04-21 19:07 53.60823 10.51255 10281 ft 296 kts 257°
2026-04-21 19:07 53.60293 10.47910 10137 ft 296 kts 255°
2026-04-21 19:07 53.59719 10.44594 10022 ft 294 kts 254°
2026-04-21 19:07 53.59122 10.41299 10008 ft 294 kts 253°
2026-04-21 19:08 53.58511 10.38009 10005 ft 295 kts 253°
2026-04-21 19:08 53.57888 10.34713 10009 ft 295 kts 253°
2026-04-21 19:08 53.57261 10.31422 10006 ft 295 kts 253°
2026-04-21 19:08 53.56630 10.28138 10003 ft 295 kts 252°
2026-04-21 19:09 53.55996 10.24846 9910 ft 295 kts 252°
2026-04-21 19:09 53.55363 10.21569 9548 ft 293 kts 252°
2026-04-21 19:09 53.54742 10.18364 9166 ft 291 kts 252°
2026-04-21 19:09 53.54138 10.15249 8826 ft 289 kts 252°
2026-04-21 19:10 53.53514 10.12037 8617 ft 288 kts 252°
2026-04-21 19:10 53.52892 10.08838 8465 ft 287 kts 252°
2026-04-21 19:10 53.52275 10.05674 8349 ft 281 kts 252°
2026-04-21 19:10 53.51675 10.02597 8223 ft 273 kts 252°
2026-04-21 19:11 53.51092 9.99619 8114 ft 264 kts 252°
2026-04-21 19:11 53.50522 9.96704 7997 ft 262 kts 252°
2026-04-21 19:11 53.49761 9.93938 7866 ft 261 kts 232°
2026-04-21 19:11 53.48616 9.91577 7761 ft 261 kts 229°
2026-04-21 19:12 53.47834 9.89999 7596 ft 260 kts 229°
2026-04-21 19:12 53.46299 9.86921 7223 ft 257 kts 229°
2026-04-21 19:12 53.45152 9.84616 6761 ft 258 kts 229°
2026-04-21 19:12 53.44010 9.82326 6357 ft 254 kts 229°
2026-04-21 19:13 53.42876 9.80054 5886 ft 253 kts 229°
2026-04-21 19:13 53.41776 9.77777 5451 ft 251 kts 237°
2026-04-21 19:13 53.41215 9.75071 5045 ft 245 kts 268°
2026-04-21 19:13 53.41531 9.72312 4659 ft 241 kts 301°
2026-04-21 19:14 53.42598 9.70252 4356 ft 234 kts 327°
2026-04-21 19:14 53.44024 9.69162 4241 ft 218 kts 353°
2026-04-21 19:14 53.45500 9.69281 3940 ft 212 kts 20°
2026-04-21 19:14 53.46781 9.70428 3645 ft 208 kts 38°
2026-04-21 19:15 53.47948 9.71872 3346 ft 208 kts 38°
2026-04-21 19:15 53.49117 9.73292 3064 ft 207 kts 38°
2026-04-21 19:15 53.50268 9.74675 2806 ft 196 kts 38°
2026-04-21 19:15 53.51355 9.75969 2546 ft 187 kts 39°
2026-04-21 19:16 53.52322 9.77383 2552 ft 183 kts 47°
2026-04-21 19:16 53.53176 9.78943 2531 ft 177 kts 51°
2026-04-21 19:16 53.53950 9.80479 2488 ft 169 kts 52°
2026-04-21 19:16 53.54696 9.81987 2307 ft 167 kts 52°
2026-04-21 19:17 53.56157 9.84931 1884 ft 160 kts 52°
2026-04-21 19:17 53.56842 9.86314 1688 ft 150 kts 51°
2026-04-21 19:17 53.57474 9.87589 1524 ft 138 kts 51°
2026-04-21 19:18 53.58081 9.88814 1324 ft 135 kts 51°
2026-04-21 19:18 53.58681 9.90028 1124 ft 135 kts 52°
2026-04-21 19:18 53.59280 9.91237 916 ft 134 kts 51°
2026-04-21 19:18 53.59879 9.92449 726 ft 135 kts 50°
2026-04-21 19:19 53.60486 9.93676 549 ft 139 kts 49°
2026-04-21 19:19 53.61125 9.94947 363 ft 144 kts 50°
2026-04-21 19:19 53.61765 9.96255 161 ft 144 kts 50°
2026-04-21 19:19 53.62391 9.97515 44 ft 131 kts 50°
2026-04-21 19:20 53.62826 9.98397 46 ft 65 kts 50°
2026-04-21 19:20 53.63072 9.98906 48 ft 34 kts 63°
2026-04-21 19:20 53.63104 9.99012 49 ft 8 kts 38°
2026-04-21 19:20 53.63226 9.99213 49 ft 30 kts 49°
2026-04-21 19:21 53.63292 9.99484 49 ft 22 kts 92°
2026-04-21 19:21 53.63279 9.99644 51 ft 0 kts 99°
2026-04-21 19:21 53.63278 9.99650 51 ft 1 kts 99°
2026-04-21 19:21 53.63258 9.99717 50 ft 12 kts 143°
2026-04-21 19:22 53.63175 9.99801 51 ft 15 kts 150°
2026-04-21 19:22 53.63074 9.99892 50 ft 18 kts 152°
2026-04-21 19:22 53.62961 9.99993 51 ft 19 kts 145°
2026-04-21 19:22 53.62947 10.00127 50 ft 7 kts 55°
2026-04-21 19:23 53.62951 10.00150 50 ft 1 kts 95°
2026-04-21 19:23 53.62946 10.00189 51 ft 6 kts 105°
2026-04-21 19:23 53.62931 10.00267 49 ft 7 kts 108°
2026-04-21 19:23 53.62928 10.00283 49 ft 0 kts 108°